SCP
1 0 0 0 0 0 0 0 0 0 0 0 0 0 0 0 0 0 0 0 0 0 0 0 0 0 0 0 0 0 0 0 0 0 0 0 0 0 0 0 0 0 0
0 0 0 0 0 0 0 0 0 0 0 0 0 0 0 0 0 0 0 0 0 0 0 0 0 0 0 0 0 0 0 0 0 0 0 0 0 0 0 0 0 0 0
0 0 0 0 0 0 0 0 0 0 0 0 0 0 0 0 0 0 0 0 0 0 0 0 0 0 0 0 0 0 0 0 0 0 0 0 0 0 0 0 0 0 0
0 0 0 0 0 0 0 0 0 0 0 0 0 0 0 0 0 0 0 0 0 0 0 0 0 0 0 0 0 0 0 0 0 0 0 0 0 0 0 0 0 0 0
0 0 0 0 0 0 0 0 0 0 0 0 0 0 0 0 0 0 0 0 0 0 0 0 0 0 0 0 0 0 0 0 0 0 0 0 0 0 0 0 0 0 0
0 0 0 0 0 0 0 0 0 0 0 0 0 0 0 0 0 0 0 0 0 0 0 0 0 0 0 0 0 0 0 0 0 0 0 0 0 0 0 0 0 0 0
0 0 0 0 0 0 0 0 0 0 0 0 0 0 0 0 0 0 0 0 0 0 0 0 0 0 0 0 0 0 0 0 0 0 0 0 0 0 0 0 0 0 0
0 0 0 0 0 0 0 0 0 0 0 0 0 0 0 0 0 0 0 0 0 0 0 0 0 0 0 0 0 0 0 0 0 0 0 0 0 0 0 0 0 0 0
0 0 0 0 0 0 0 0 0 0 0 0 0 0 0 0 0 0 0 0 0 0 0 0 0 0 0 0 0 0 0 0 0 0 0 0 0 0 0 0 0 0 0
0 0 0 0 0 0 0 0 0 0 0 0 0 0 0 0 0 0 0 0 0 0 0 0 0 0 0 0 0 0 0 0 0 0 0 0 0 0 0 0 0 0 0
0 0 0 0 0 0 0 0 0 0 0 0 0 0 0 0 0 0 0 0 0 0 0 0 0 0 0 0 0 0 0 0 0 0 0 0 0 0 0 0 0 0 0
0 0 0 0 0 0 0 0 0 0 0 0 0 0 0 0 0 0 0 0 0 0 0 0 0 0 0 0 0 0 0 0 0 0 0 0 0 0 0 0 0 0 0
0 0 1 1 1 0 0 0 0 0 0 0 0 0 0 0 0 0 0 0 0 0 0 0 0 0 0 0 0 0 0 0 0 0 0 0 0 0 0 0 0 0 0
1 1 1 1 1 1 1 0 0 0 0 0 0 0 0 0 0 0 0 0 0 0 0 0 0 0 0 0 0 0 0 0 0 0 0 0 0 0 0 0 0 0 0
1 1 1 1 1 1 1 1 1 1 0 0 0 0 0 0 0 0 0 0 0 0 0 0 0 0 0 0 0 0 0 0 0 0 0 0 0 0 0 0 0 0 0
1 1 1 1 1 1 1 1 1 1 1 0 0 0 0 0 0 0 0 0 0 0 0 0 0 0 0 0 0 0 0 0 0 0 0 0 0 0 0 0 0 0 0
1 1 1 2 2 1 1 1 1 1 1 1 0 0 0 0 0 0 0 0 0 0 0 0 0 0 0 0 0 0 0 0 0 0 0 0 0 0 0 0 0 0 0
1 1 1 2 2 2 1 1 1 1 1 0 0 0 0 0 0 0 0 0 0 0 0 0 0 0 0 0 0 0 0 0 0 0 0 0 0 0 0 0 0 0 0
1 1 1 2 2 2 2 1 1 1 1 0 0 0 0 0 0 0 0 0 0 0 0 0 0 0 0 0 0 0 0 0 0 0 0 0 0 0 0 0 0 0 0
1 1 2 2 2 2 2 1 1 1 1 0 0 0 0 0 0 1 1 1 0 0 0 0 0 0 0 0 0 0 0 0 0 0 0 0 0 0 0 0 0 0 0
2 2 2 2 2 2 2 1 1 1 1 1 1 1 1 0 1 1 1 1 1 0 0 0 0 0 0 0 0 0 0 0 0 0 0 0 0 0 0 0 0 0 0
2 2 2 3 3 3 2 2 1 1 1 1 1 1 1 1 1 1 1 1 1 0 0 0 0 0 0 0 0 0 0 0 0 0 0 0 0 0 0 0 0 0 0
2 2 2 3 3 3 2 2 2 1 1 1 1 1 1 1 1 1 1 1 1 0 0 0 0 0 0 0 0 0 0 0 0 0 0 0 0 0 0 0 0 0 0
2 2 2 2 2 2 2 2 2 1 1 1 1 1 1 1 1 1 1 1 0 0 0 0 0 0 0 0 0 0 0 0 0 0 0 0 0 0 0 0 0 0 0
2 2 2 2 2 2 2 2 2 2 1 1 1 1 1 1 1 1 0 0 0 0 0 0 0 0 0 0 0 0 0 0 0 0 0 0 0 0 0 0 0 0 0
2 2 2 2 2 2 2 2 2 2 1 1 1 1 1 0 0 0 0 0 0 0 0 0 0 0 0 0 0 0 0 0 0 0 0 0 0 0 0 0 0 0 0
Wind_Speed
12 11 10 11 10 8 7 6 6 4 3 3 3 3 3 3 4 4 4 4 3 3 2 3 2 1 3 2 2 2 1 1 1 1 1 2 3 3 3 3 2 3 4
13 12 11 10 10 9 7 7 6 5 4 4 3 2 3 3 4 4 3 4 3 2 2 3 2 2 2 2 2 2 1 1 1 1 1 1 1 1 3 2 3 3 2
15 13 12 11 10 9 8 7 7 5 4 4 3 4 3 2 4 4 3 3 3 3 4 3 3 3 2 2 2 3 3 2 1 1 1 1 1 1 0 1 2 2 1
15 14 13 11 10 10 9 8 7 6 4 3 3 3 4 4 4 4 4 3 3 3 4 3 3 3 3 3 2 4 3 2 2 1 1 1 1 1 1 1 2 3 2
16 15 14 12 11 11 11 9 8 6 5 4 4 2 3 4 4 5 5 4 3 3 4 3 3 3 3 3 4 3 3 3 3 2 2 1 0 1 1 1 0 1 1
17 16 14 13 11 11 11 10 8 6 5 5 5 3 4 4 5 4 4 3 3 3 3 4 3 2 2 3 3 3 3 3 3 3 3 2 2 1 1 1 1 1 1
17 16 16 14 12 12 12 11 10 7 6 6 5 5 5 4 4 3 3 2 3 3 4 4 3 2 2 2 2 1 2 2 2 2 2 3 3 2 2 2 2 2 1
17 17 17 15 13 13 12 12 10 8 7 6 5 5 4 3 3 2 2 2 3 5 4 3 2 2 1 2 2 1 0 1 2 2 2 2 2 2 2 2 2 3 2
18 17 17 16 14 13 12 12 11 9 8 8 6 5 4 2 4 3 1 2 3 4 4 2 2 2 2 1 1 0 1 1 1 2 2 2 2 2 1 1 1 2 3
18 17 17 16 15 13 12 13 12 10 9 8 7 7 5 4 4 3 3 4 4 4 2 2 2 2 1 1 1 1 1 1 1 1 1 2 2 3 2 1 1 1 2
17 17 16 16 15 15 14 13 12 11 9 8 7 7 6 5 4 3 3 4 3 3 2 1 1 1 1 1 1 1 0 0 1 2 1 1 1 2 3 3 2 2 1
16 17 17 16 15 15 15 13 13 12 10 8 7 7 6 6 5 4 4 4 3 3 3 2 2 2 1 1 1 2 1 1 1 2 2 3 2 2 2 2 3 3 2
16 16 15 15 14 14 14 14 13 12 11 10 9 7 7 6 5 5 4 4 4 3 3 2 2 2 1 1 1 1 1 2 2 2 2 2 3 2 2 3 3 3 4
14 14 13 12 12 12 12 13 13 13 12 11 9 8 7 7 6 5 5 5 4 4 3 3 3 2 2 2 1 1 1 2 2 2 2 3 3 2 2 3 3 3 3
14 14 13 12 12 12 12 12 12 12 11 10 9 8 7 7 6 6 5 5 5 5 4 4 3 3 3 2 2 2 2 1 2 2 3 4 3 2 2 3 2 3 3
16 15 15 14 13 12 12 11 11 11 10 10 9 9 8 8 7 6 6 5 5 4 3 4 4 4 3 4 4 0 3 3 3 4 3 4 5 6 9 9 7 6 5
15 14 15 14 12 13 11 11 11 10 10 9 9 9 8 8 8 8 7 6 5 5 4 4 4 3 3 6 5 4 2 4 4 4 4 5 4 2 3 6 10 10 12
14 13 13 14 13 13 12 11 12 11 11 10 9 9 9 8 8 6 6 6 5 4 4 5 5 4 5 9 8 6 5 6 6 6 5 5 4 4 3 4 5 5 7
11 12 13 14 13 13 12 12 12 12 12 12 10 10 9 8 8 7 6 5 5 4 5 5 5 5 5 9 10 8 5 6 7 7 6 6 5 6 6 5 6 6 6
10 12 13 14 13 12 12 12 13 13 12 11 10 9 8 8 7 7 6 5 5 5 5 6 6 6 6 10 12 11 5 6 6 5 6 8 8 8 8 5 5 7 6
10 11 11 12 12 12 12 12 11 11 10 10 9 8 8 7 7 6 5 5 5 6 6 5 5 6 7 9 13 14 7 6 6 5 4 3 6 9 10 8 7 9 7
10 11 9 10 11 12 12 11 9 9 8 8 8 8 8 8 8 6 6 5 5 6 6 6 6 6 6 9 12 16 15 10 6 5 4 2 4 7 9 8 10 11 8
8 9 10 10 10 11 11 11 9 8 8 8 8 7 7 6 5 7 7 6 6 6 6 6 7 7 6 7 13 15 15 14 8 6 8 7 8 8 8 13 14 10 7
7 8 10 10 10 10 10 9 8 8 8 8 7 6 6 7 6 5 6 7 7 7 6 6 5 4 3 3 4 5 7 9 9 8 9 11 13 12 12 10 9 8 9
6 7 8 9 10 9 9 9 8 8 8 8 7 7 7 7 5 6 5 6 5 5 5 4 3 3 2 1 2 2 3 2 2 3 5 6 6 6 7 8 8 8 8
6 6 8 9 9 9 9 8 8 8 8 8 7 7 7 6 7 7 7 9 9 7 7 5 4 3 3 3 3 3 3 2 2 2 6 7 7 7 7 6 6 6 6
Wind_Direction
144 142 139 134 132 128 123 121 120 126 132 129 138 138 134 127 114 113 106 96 81 73 48 61 87 59 68 56 43 36 323 253 217 270 267 233 210 208 207 207 213 206 201
149 148 148 143 139 141 140 136 132 131 120 110 107 114 118 116 105 94 94 88 78 53 80 62 47 52 72 67 43 39 357 347 57 327 303 247 190 242 213 194 205 206 202
157 156 154 150 148 148 148 133 124 120 116 134 132 120 119 122 118 121 108 95 90 75 52 54 45 29 47 65 38 32 24 6 358 37 17 8 28 310 191 196 164 161 191
160 160 158 154 152 149 141 130 126 120 123 133 115 145 135 125 119 118 111 104 90 93 85 70 58 35 44 46 31 56 9 3 348 28 62 90 71 341 343 252 168 177 184
163 164 163 159 157 149 143 137 130 127 126 123 120 120 113 123 119 111 120 124 116 107 100 93 70 48 58 58 42 42 25 11 10 357 349 358 277 238 250 298 326 228 192
165 164 161 158 156 152 145 142 141 141 142 132 120 107 102 102 112 120 137 155 139 123 106 102 79 59 60 62 48 30 35 36 21 360 346 348 351 353 359 334 320 305 280
165 163 163 163 162 157 150 149 149 152 153 143 134 129 122 127 133 141 149 147 135 119 91 85 79 67 67 75 58 48 37 24 19 360 346 352 351 3 2 346 330 320 288
167 167 168 167 167 162 156 153 155 157 155 143 136 134 142 165 143 118 111 119 92 100 107 98 100 93 59 51 46 357 32 55 1 348 357 325 331 356 353 347 339 322 313
170 171 169 168 167 164 161 156 158 159 158 151 147 149 152 118 110 122 131 104 98 121 112 121 115 102 83 48 18 360 29 26 341 335 352 334 331 336 339 338 333 325 320
171 171 169 168 168 166 161 158 160 161 160 157 166 159 153 131 126 145 118 94 92 90 120 120 112 112 111 85 356 326 79 43 344 289 351 343 335 349 332 322 319 306 298
173 171 169 168 168 168 165 162 161 164 167 168 171 145 155 149 153 162 136 120 120 132 141 141 148 154 160 116 338 310 306 332 326 325 339 329 326 334 332 329 320 308 302
174 170 168 168 171 170 168 166 165 168 170 166 163 159 158 159 168 166 152 147 157 172 179 178 189 212 163 139 281 298 337 339 328 331 339 326 321 341 311 321 319 317 305
172 167 167 168 171 170 169 168 169 169 169 167 170 167 165 163 169 165 159 163 172 189 191 185 194 218 192 192 225 276 315 323 318 322 320 314 314 313 317 320 309 308 307
168 165 163 165 167 166 165 166 171 168 168 169 174 168 166 164 170 170 170 178 182 195 198 203 210 219 222 212 213 244 261 278 295 301 297 287 286 289 302 293 293 298 306
173 167 163 163 163 162 163 166 169 166 166 169 172 166 166 165 171 175 180 185 195 202 194 205 218 228 224 216 201 258 260 285 288 282 275 273 263 254 250 278 315 321 312
180 173 168 166 166 165 168 167 166 162 162 170 173 167 171 171 175 181 186 190 197 206 205 215 224 234 231 134 124 159 317 311 296 289 286 279 247 224 225 238 246 249 263
179 174 171 170 169 169 168 166 164 160 164 172 175 170 175 178 181 192 190 192 195 202 213 226 229 220 179 164 169 187 253 276 277 282 282 284 294 287 250 237 237 244 247
178 174 172 169 170 169 166 165 165 165 170 176 181 175 180 185 183 194 192 188 192 204 213 224 232 227 210 191 194 202 233 258 261 259 257 257 266 276 279 287 274 257 250
172 168 172 172 169 170 167 167 170 172 178 183 185 182 183 186 185 192 192 187 195 207 216 222 225 226 215 201 202 203 238 249 252 251 248 240 234 222 229 251 269 276 276
164 165 169 166 162 162 162 171 176 178 184 185 184 181 179 186 188 189 186 190 198 214 226 228 223 224 222 207 205 203 235 254 257 252 243 238 230 218 218 235 256 267 272
150 155 159 160 159 158 161 172 178 180 181 180 176 175 175 182 187 184 181 188 203 217 228 237 233 229 229 212 206 206 225 249 265 269 263 242 217 216 220 228 243 253 266
149 152 149 149 151 156 161 171 176 171 171 172 172 174 174 192 193 182 185 195 209 219 223 231 243 244 230 220 212 210 218 235 256 269 277 266 220 230 235 237 246 253 262
140 145 144 143 149 157 164 173 170 162 164 167 170 171 173 193 194 182 191 201 209 228 234 226 229 235 225 211 208 208 217 226 235 259 273 282 256 255 250 246 247 249 246
135 142 147 151 154 161 166 167 161 160 163 168 168 170 177 189 201 197 201 210 215 220 230 239 239 238 221 194 179 199 219 230 238 254 268 266 255 248 254 259 242 229 232
137 144 147 153 157 158 163 166 162 162 168 170 172 181 191 197 206 207 215 221 222 220 224 243 261 277 267 168 163 200 225 230 226 260 258 261 258 248 242 240 239 233 228
134 142 151 157 158 159 163 164 163 166 171 177 182 193 200 198 204 211 221 227 231 225 221 225 242 263 248 221 229 231 233 232 191 245 262 264 265 266 265 258 250 241 240